Theta_e
314 314 313 313 313 312 313 313 313 313 313 314 314 314 314 315 314 306 300 305 310 320 323 307 305 300 301 297 299 301 291 290 293 297 300 304 304 308 310 311 314 313 313 313 316
313 312 313 313 313 313 313 313 313 313 313 313 314 313 313 313 307 302 310 317 323 329 309 301 299 297 294 296 298 295 290 292 299 300 301 301 302 304 305 306 307 309 314 314 315
312 312 312 312 312 312 312 312 312 312 314 313 313 313 313 313 302 307 326 322 325 327 305 302 299 297 290 294 296 295 292 296 299 299 300 300 301 304 303 301 305 306 311 312 316
312 312 312 312 312 312 312 312 312 313 313 313 313 313 314 308 295 306 331 327 331 315 303 299 298 294 289 289 294 291 297 298 300 302 301 300 302 300 302 302 306 308 311 312 310
312 312 312 312 313 312 313 313 313 312 312 312 312 314 306 299 303 313 330 327 314 306 301 301 298 292 289 291 292 291 295 297 300 300 299 302 300 300 301 304 307 310 312 310 308
312 312 312 312 312 312 313 313 313 313 313 312 313 314 304 294 310 319 316 314 309 306 306 305 301 297 291 291 291 293 293 295 296 297 297 297 299 299 302 305 305 306 310 309 309
312 312 312 312 312 313 314 315 314 314 313 314 314 312 302 296 309 316 310 305 307 308 306 308 306 299 295 293 294 294 290 293 294 295 295 297 295 296 302 304 304 307 309 310 309
313 312 311 312 313 314 314 314 314 315 315 316 315 306 294 306 309 306 308 308 310 310 310 308 303 297 294 294 294 290 288 285 292 295 297 295 291 298 300 301 303 304 307 311 310
313 312 311 312 312 313 314 313 314 316 318 316 305 301 299 316 311 312 309 308 308 308 305 308 299 294 294 288 286 286 282 284 289 294 294 294 290 297 300 299 298 300 303 308 310
313 312 311 311 312 312 312 313 315 314 314 313 311 301 304 306 308 309 309 310 306 302 299 297 292 290 287 285 280 283 283 286 286 292 292 291 291 294 297 297 297 298 301 306 308
312 312 311 311 311 311 307 303 301 300 304 300 304 302 306 312 311 304 306 304 302 297 290 293 288 285 288 289 290 289 287 286 290 293 292 290 291 293 295 295 295 296 297 302 307
312 311 311 311 310 310 305 299 303 301 297 305 306 306 310 311 305 305 307 298 296 290 292 289 286 292 294 293 291 290 287 287 290 294 291 290 290 293 293 294 295 296 296 296 299
311 311 311 311 310 306 303 305 309 306 295 301 305 305 305 308 304 305 304 299 294 290 290 287 291 296 294 292 291 289 287 288 288 292 291 290 288 290 293 295 297 298 297 297 300
311 311 311 310 302 302 301 307 308 305 291 299 300 303 306 305 298 309 306 300 294 291 291 289 293 293 291 291 291 285 292 292 291 287 282 289 282 287 290 292 294 296 296 296 297
311 311 310 308 297 300 305 306 307 306 283 302 301 307 304 299 300 301 305 299 294 293 291 289 291 291 289 291 293 289 294 291 290 286 282 284 280 283 288 289 292 294 296 298 298
311 311 309 304 300 304 309 306 306 293 286 299 299 296 294 297 298 300 300 301 299 293 292 292 295 293 292 295 294 295 290 287 285 282 277 283 282 282 286 289 291 294 297 299 300
311 310 305 305 299 303 306 304 290 285 301 297 297 297 294 294 295 297 295 292 289 284 285 290 291 294 296 290 293 289 283 277 276 276 279 285 282 285 289 293 294 296 297 298 299
308 307 306 304 300 303 304 296 284 293 295 300 298 297 293 295 294 296 294 289 293 289 285 284 284 291 296 292 289 287 285 279 275 275 279 286 280 286 294 297 298 298 298 297 298
306 300 301 305 304 302 297 286 286 294 296 295 296 292 291 295 294 293 291 291 293 292 285 284 286 295 297 297 295 289 284 286 282 284 278 282 286 292 295 296 297 297 297 296 297
299 299 303 309 306 302 292 288 294 298 299 297 291 294 290 293 292 292 291 297 296 298 294 290 284 293 295 296 295 292 293 283 283 277 275 281 283 284 290 291 295 296 296 296 298
294 293 304 310 307 297 287 291 297 300 299 296 293 292 292 291 292 291 292 296 298 296 296 291 287 288 292 290 289 289 288 289 287 284 277 277 280 288 289 292 294 297 297 297 297
293 290 299 306 296 294 292 297 298 299 301 298 297 294 291 292 290 291 292 295 297 298 292 294 289 284 288 292 296 293 290 290 283 282 285 281 281 294 293 295 297 298 300 300 299
293 291 303 303 289 287 294 296 299 297 296 294 294 294 293 290 286 290 293 297 298 299 296 295 286 281 284 288 292 290 292 289 286 287 281 277 280 294 297 295 297 299 300 301 301
291 289 294 298 294 291 290 293 293 299 297 296 294 295 291 289 291 289 289 295 296 296 304 297 289 285 281 285 288 287 289 291 289 283 283 283 285 290 293 293 296 298 299 301 298
292 289 290 286 290 293 293 292 291 290 295 296 292 292 290 284 287 287 291 291 294 297 295 292 285 288 289 290 291 289 289 289 286 288 284 285 286 289 292 293 295 297 300 301 301
288 288 290 288 293 293 293 290 291 292 292 291 289 290 290 286 287 285 288 289 288 293 290 290 283 288 286 290 289 287 288 288 289 288 287 287 286 293 296 296 296 297 299 299 300
295 298 293 288 290 290 290 291 292 293 294 295 293 290 288 291 293 293 293 293 292 289 287 286 284 282 279 285 285 280 284 286 288 290 289 284 289 291 296 296 296 297 298 297 299
Wind_Speed
17 16 15 14 14 13 13 12 12 11 11 12 12 12 13 15 15 2 7 12 8 12 2 3 2 2 3 1 1 4 4 3 5 4 7 3 7 4 7 7 6 7 8 4 4
17 16 16 15 14 13 13 12 11 11 10 10 10 11 12 13 7 8 13 10 14 2 4 2 1 3 2 2 1 4 4 9 6 4 7 1 4 6 7 10 8 4 5 8 2
17 17 16 16 15 14 13 12 10 10 10 9 9 9 10 9 4 8 6 16 11 6 2 1 2 2 3 2 4 5 6 5 5 6 7 11 3 3 5 7 7 10 9 7 6
18 17 16 16 15 13 13 12 11 10 9 9 8 8 10 1 2 2 4 14 8 7 2 3 2 4 3 4 3 2 6 4 7 7 6 8 4 3 7 12 9 9 6 7 7
18 18 16 15 15 14 13 11 11 10 9 7 6 6 3 2 9 3 11 11 6 6 4 4 4 4 3 4 2 5 6 7 10 10 7 10 14 12 13 12 11 10 5 8 9
17 17 17 16 15 14 14 12 11 9 9 7 5 2 0 3 3 5 8 6 5 4 5 5 5 5 3 4 6 5 4 7 7 7 4 5 12 4 5 10 12 11 11 10 10
17 17 16 16 15 14 14 11 9 9 8 6 5 2 1 10 4 6 8 5 2 4 3 5 3 4 2 5 1 3 4 6 4 3 5 5 9 11 5 5 9 10 8 8 9
17 17 16 16 16 15 14 13 11 10 7 5 5 2 8 5 2 2 4 5 6 7 4 8 7 2 2 2 6 4 4 2 5 1 6 4 11 13 5 7 10 10 8 9 11
19 17 18 16 15 15 16 15 13 7 4 7 2 1 9 1 2 8 5 7 2 5 5 4 1 3 6 4 6 5 3 3 7 3 3 6 7 7 12 4 9 10 10 9 12
21 19 18 17 15 15 17 14 2 5 4 5 4 3 5 1 4 7 7 5 4 1 4 4 5 3 4 5 5 6 3 3 4 5 3 6 9 7 7 5 11 10 9 11 10
23 21 19 17 16 11 9 1 3 1 2 8 6 5 8 5 2 4 6 6 6 4 3 3 4 7 10 8 7 4 4 7 6 10 4 7 11 9 9 7 9 11 8 10 12
24 22 22 19 16 13 1 1 4 1 8 12 14 8 9 4 4 5 6 4 4 5 4 4 6 10 5 5 7 8 8 10 7 7 5 7 13 9 4 6 7 9 10 10 8
22 21 20 20 20 4 3 6 1 4 3 7 6 6 6 10 8 8 8 5 4 4 6 7 10 0 4 8 4 5 5 7 8 3 3 5 9 6 4 5 7 8 5 4 8
23 20 19 21 2 1 4 2 5 4 4 6 4 7 5 6 6 9 11 7 3 10 5 6 8 6 4 6 6 5 6 7 6 2 6 1 14 6 6 5 5 10 9 9 8
26 20 15 8 4 2 3 6 5 4 3 2 3 2 6 8 3 3 4 4 10 8 8 11 5 7 5 10 8 9 7 7 6 5 4 4 6 2 3 9 11 9 11 10 9
29 21 10 2 1 7 7 7 4 5 5 1 5 4 4 4 2 2 4 2 3 5 4 11 3 6 9 9 6 2 2 4 5 4 3 8 7 4 4 9 6 5 9 9 10
29 25 3 1 4 4 4 4 5 4 4 2 4 1 4 5 4 4 4 5 8 3 7 9 11 6 3 4 6 4 6 4 4 2 11 9 7 10 7 8 12 17 10 9 8
30 26 7 5 1 5 3 5 3 3 4 6 5 3 4 2 1 1 3 2 6 4 2 5 11 5 6 11 11 7 9 7 8 7 7 4 7 8 5 7 9 9 8 4 7
29 4 3 4 6 1 6 2 5 1 4 6 6 1 1 2 1 0 4 5 5 7 6 4 6 5 5 4 7 3 4 5 4 2 1 4 7 7 11 13 8 10 3 4 6
7 5 4 1 7 5 5 4 3 3 5 4 3 4 3 6 3 1 2 4 3 3 4 5 4 5 4 3 2 5 4 2 2 4 10 4 5 8 9 10 13 16 6 2 4
3 5 3 3 3 6 3 5 3 3 4 2 3 3 3 3 3 2 4 5 9 6 3 5 6 5 2 5 6 1 2 4 2 2 3 5 6 7 3 1 7 14 14 5 5
5 4 3 4 4 2 1 3 4 4 6 2 2 4 2 2 5 5 4 3 9 4 5 2 2 4 7 5 3 3 1 4 4 5 5 4 7 7 2 1 2 6 15 17 9
5 5 5 4 3 4 6 6 4 10 5 4 4 4 3 2 3 4 5 8 9 6 3 6 3 4 7 4 4 5 2 3 3 2 6 5 6 2 2 3 5 5 8 13 10
4 5 6 5 3 3 6 5 7 8 3 6 3 2 5 3 3 4 10 6 9 3 7 6 3 4 5 4 3 5 6 5 4 4 3 6 14 17 14 6 5 5 6 11 9
3 2 2 5 3 6 7 7 9 8 7 6 5 7 9 6 10 11 5 14 11 14 5 6 7 7 9 10 7 9 11 12 8 13 10 12 14 14 11 5 5 5 6 8 9
3 4 6 4 4 3 1 3 11 8 6 6 3 9 10 9 11 16 12 9 10 3 3 1 4 2 5 7 10 13 13 12 13 11 10 17 16 7 6 5 5 5 5 5 6
3 2 1 5 5 2 3 3 5 14 9 6 11 11 11 8 11 13 13 12 9 8 5 4 5 3 4 4 4 6 8 7 3 0 3 5 3 10 9 6 5 6 4 6 8
Wind_Direction
330 327 325 323 319 316 317 316 313 315 315 315 315 313 315 319 320 310 240 222 197 235 325 306 248 175 94 95 183 110 72 204 219 202 249 4 8 329 317 323 3 199 166 204 142
330 328 325 322 319 318 317 314 314 313 314 314 313 312 318 322 310 250 242 219 217 268 153 177 127 126 85 172 192 123 152 215 216 217 281 107 338 332 340 335 323 341 25 135 172
332 330 326 322 320 319 316 315 314 312 309 310 311 313 318 325 293 249 195 202 205 221 285 27 113 95 135 149 199 182 196 217 238 244 263 288 284 227 276 294 250 277 193 208 171
336 335 331 326 321 318 317 315 314 311 309 305 308 313 309 202 134 304 74 164 181 158 170 150 126 110 131 201 204 193 243 207 270 247 262 267 259 256 216 248 255 249 221 200 197
338 334 332 327 323 320 318 315 314 311 306 301 302 309 5 278 254 285 113 136 123 129 168 158 132 151 180 195 169 184 251 268 260 268 242 263 269 256 257 261 263 277 224 186 175
339 337 333 329 325 320 314 311 309 298 296 287 265 297 238 294 235 148 123 129 146 165 185 168 194 189 264 218 150 203 230 257 271 255 252 233 267 215 262 242 245 248 218 194 184
337 336 334 329 322 317 312 306 294 293 288 266 247 214 79 237 347 157 149 179 192 186 189 218 195 144 151 308 226 278 311 325 244 256 233 191 281 255 230 257 257 252 208 244 206
335 333 334 331 324 317 311 306 297 285 270 228 216 233 246 244 265 184 162 289 225 207 241 265 189 157 181 322 12 0 59 315 287 112 274 147 272 289 236 206 235 251 249 209 222
334 333 332 331 326 319 312 305 294 266 213 166 161 212 269 331 190 232 161 235 8 242 209 286 63 88 28 69 7 358 245 249 310 238 240 197 275 276 316 299 231 242 254 232 226
333 333 330 328 327 322 316 307 99 134 172 195 250 315 268 264 234 175 190 195 228 332 39 58 50 62 41 75 223 233 223 249 240 277 176 282 273 269 262 291 292 289 242 243 228
333 331 328 327 323 326 345 36 13 15 215 212 205 249 288 289 212 206 180 161 191 84 158 18 86 228 233 205 225 239 232 247 257 267 223 245 271 272 287 308 291 289 280 239 235
329 331 327 321 317 316 233 217 219 239 301 227 242 243 257 65 325 292 119 150 141 210 121 22 247 240 233 228 219 235 253 274 278 247 189 268 272 281 255 255 269 283 295 266 259
324 321 323 319 316 125 187 236 72 238 277 290 194 214 225 150 212 245 166 159 185 213 181 173 245 19 215 272 257 248 206 246 221 250 278 268 279 295 261 250 274 288 281 290 269
322 318 323 324 269 292 256 238 319 178 33 271 219 252 169 169 265 207 184 144 191 209 219 225 255 212 224 226 191 244 216 231 233 161 257 176 283 255 271 284 291 299 296 279 249
322 321 322 320 312 197 255 336 300 66 354 159 176 159 150 168 240 235 136 101 208 201 129 240 216 229 253 246 177 237 237 233 233 203 121 268 277 229 354 288 277 251 265 266 260
322 325 330 86 195 250 321 315 59 48 256 280 154 161 119 243 259 347 156 110 209 212 246 241 165 168 222 267 222 251 329 58 54 110 203 234 228 208 239 253 297 251 247 278 281
322 323 254 165 237 320 308 41 47 167 313 56 39 225 202 223 254 207 230 191 202 179 237 255 252 259 182 261 314 135 74 317 319 280 255 220 251 256 249 267 246 275 276 282 291
323 316 202 222 228 346 47 55 205 248 358 6 348 312 230 56 289 345 339 289 246 201 149 191 287 214 231 202 214 209 162 173 250 245 255 315 248 263 244 259 266 265 242 283 354
319 320 260 255 179 144 73 104 221 3 346 321 313 291 286 105 202 46 207 222 214 170 191 254 269 269 210 173 137 213 203 216 132 357 15 223 293 299 271 290 317 295 205 81 54
313 329 273 135 151 76 78 250 257 25 355 342 278 353 332 319 296 358 265 264 332 103 138 266 281 242 237 138 116 169 163 280 360 278 262 242 256 250 292 307 336 328 281 327 54
332 349 301 96 71 56 168 236 287 7 23 300 321 298 352 345 309 261 253 320 18 350 233 231 187 267 108 204 224 277 185 62 125 140 250 274 252 211 196 142 19 343 320 245 157
344 341 301 338 61 49 237 255 312 17 335 343 38 52 59 360 306 265 255 22 12 321 337 312 199 221 226 321 28 61 72 163 183 221 208 198 258 271 219 204 9 323 314 309 299
331 280 307 69 61 358 326 305 323 18 3 20 15 29 42 270 334 327 325 333 46 40 29 349 306 337 330 359 29 70 88 111 114 55 230 189 257 279 164 349 324 256 280 284 288
345 341 332 37 91 61 353 325 355 10 35 354 291 20 3 288 249 273 283 288 348 356 4 48 320 219 234 254 191 277 247 218 161 224 241 235 284 280 284 283 270 284 309 303 279
16 316 38 328 33 52 5 309 352 6 1 349 350 8 327 278 297 275 260 317 304 306 270 177 218 219 243 254 257 255 255 266 210 234 236 267 260 274 279 229 267 303 313 7 348
36 11 345 287 260 346 196 283 300 325 326 289 312 318 304 266 259 283 284 272 255 264 176 324 249 230 267 248 249 256 259 251 250 256 249 267 277 344 332 328 310 324 312 335 327
325 328 91 284 312 118 197 251 319 319 286 305 324 312 292 284 311 283 258 253 235 220 195 185 181 135 264 297 297 286 257 246 200 93 269 267 349 359 293 319 311 309 306 333 329